Regional Weather Roundup
Issued by NWS

Home | Current Version | Previous Version | Graphics & Text | Print | Product List | Glossary On
Versions: 1 2 3 4 5 6 7 8 9 10 11 12 13 14 15 16 17 18 19 20 21 22 23 24 25 26 27 28 29 30 31 32 33 34 35 36 37 38 39 40 41 42 43 44 45 46 47 48 49 50
495
ASUS43 KTOP 170459
RWRKS

WEATHER ROUNDUP FOR KANSAS
NATIONAL WEATHER SERVICE GOODLAND KS
1200 AM CDT TUE OCT 17 2017

NOTE:  "FAIR" INDICATES FEW OR NO CLOUDS BELOW 12,000 FEET WITH NO
SIGNIFICANT WEATHER AND/OR OBSTRUCTIONS TO VISIBILITY.

KSZ001>006-013>018-027>032-041>047-170600-
NORTHWEST KANSAS

CITY           SKY/WX    TMP DP  RH WIND       PRES   REMARKS
GOODLAND       CLEAR     49  31  49 SW6       30.15S
HAYS           CLEAR     55  36  48 S13       30.15F
HILL CITY      CLEAR     57  36  45 SW12      30.12F
RUSSELL        CLEAR     55  40  56 S17       30.14F
$$

KSZ061>065-074>080-084>089-170600-
SOUTHWEST KANSAS

CITY           SKY/WX    TMP DP  RH WIND       PRES   REMARKS
DODGE CITY     CLEAR     54  34  46 S16       30.19S
ELKHART          N/A     56  36  47 S10         N/A
GARDEN CITY    CLEAR     48  36  63 S6        30.16F
GREAT BEND     PTCLDY    54  38  54 S15       30.18F
LIBERAL        CLEAR     45  37  73 S12       30.19F
$$

KSZ066>073-081>083-090>101-170600-
SOUTHEAST KANSAS

CITY           SKY/WX    TMP DP  RH WIND       PRES   REMARKS
CHANUTE        CLEAR     45  40  82 S7        30.27F
COFFEYVILLE    CLEAR     46  44  93 SE5       30.28F
HUTCHINSON     CLOUDY    55  42  61 S13       30.21F
MEDICINE LODGE   N/A     50  40  68 S7        30.22F
NEWTON         PTCLDY    51  40  65 S9        30.23F
PARSONS        CLEAR     43  41  93 CALM      30.29F
WICHITA INTL   PTCLDY    48  42  80 S6        30.24S
WICHITA JABRA  CLOUDY    50  42  74 S10       30.23F
WICHITA MCCONL CLOUDY    51  40  66 S7        30.24F
WINFIELD       CLEAR     50  44  80 S8        30.27F
$$

KSZ007>012-019>026-033>040-048>060-102>105-170600-
NORTHEAST KANSAS

CITY           SKY/WX    TMP DP  RH WIND       PRES   REMARKS
CONCORDIA      MOCLDY    55  40  56 S17       30.15S
EMPORIA        CLEAR     48  39  71 S10       30.24F
LAWRENCE       CLOUDY    51  43  74 SE8       30.23F
MANHATTAN      CLOUDY    57  41  55 SW10      30.19F
OLATHE IND     CLOUDY    47  41  80 S6        30.25F
OLATHE EXE     CLEAR     50  41  71 S7        30.25F
SALINA         PTCLDY    57  42  57 S14G22    30.19F
TOPEKA BILLARD CLEAR     54  42  64 S8        30.22F
TOPEKA FORBES  CLEAR     53  42  66 S10       30.22F
$$




USA.gov is the U.S. government's official web portal to all federal, state and local government web resources and services.